Location: Unnamed Road
(35.9029°N, 51.9749°E)
Time: 23:14:05
(UTC+04:30)

A-11 Canister half - Visible Passes

Search period start: 06 June 2020 00:00
Search period end: 16 June 2020 00:00
Orbit: 1526 x 1683 km, 47.3° (Epoch: 05 June)

Date Brightness Start Highest point End Pass type
(mag) Time Alt. Az. Time Alt. Az. Time Alt. Az.
06 Jun 9.8 04:53:12 10° SSW 05:01:48 43° SE 05:10:22 10° ENE visible
07 Jun 9.8 04:31:44 10° SSW 04:40:13 41° SE 04:48:39 10° ENE visible
08 Jun 9.8 04:11:16 13° SSW 04:18:38 38° SE 04:26:57 10° ENE visible
09 Jun 9.8 03:50:53 17° S 03:57:03 36° SE 04:05:13 10° ENE visible
10 Jun 9.9 03:30:27 21° S 03:35:28 34° SE 03:43:30 10° ENE visible
11 Jun 9.9 03:09:58 24° SSE 03:13:54 32° SE 03:21:45 10° ENE visible
11 Jun 9.1 05:08:51 10° WSW 05:18:12 82° NNW 05:27:34 10° NE visible
12 Jun 9.9 02:49:26 26° SSE 02:52:19 30° SE 03:00:00 10° ENE visible
12 Jun 9.0 04:47:43 12° WSW 04:56:34 86° NW 05:05:55 10° NE visible
13 Jun 9.9 02:28:51 26° SSE 02:30:45 28° SE 02:38:14 10° ENE visible
13 Jun 9.0 04:27:08 17° SW 04:34:56 89° NNW 04:44:16 10° NE visible
14 Jun 10.0 02:08:13 26° SE 02:09:11 27° SE 02:16:27 10° ENE visible
14 Jun 8.9 04:06:29 22° SW 04:13:18 88° SE 04:22:38 10° ENE visible
15 Jun 10.0 01:47:32 25° SE 01:47:37 25° SE 01:54:40 10° ENE visible
15 Jun 8.9 03:45:49 27° SW 03:51:40 85° SE 04:01:00 10° ENE visible
